Weather in Pokrovsk

Ukraine / Donetsk Region     48°16′49″N   37°10′32″E
temp.,
°C
wind,
m/s
gust,
m/s
humid.,
%
clouds,
%
prec.,
mm/h
press.,
hPa
HPBL,
m
23 april, fri
fri2300:00+8ssw35855 0.0 102290
03:00+7ssw378974 0.0 1022124
06:00+8ssw378642 0.0 1022207
09:00+12ssw57680 0.0 1021623
12:00+16sw67475 0.0 10201841
15:00+17sw784094 0.0 10182516
18:00+15ssw7954100 0.0 10171233
21:00+11ssw61169100 0.0 1017454
24 april, sat
sat2400:00+10ssw51080100 0.3 1016448
03:00+9sw61188100 1.0 10151315
06:00+7nw588467 0.7 1017773
09:00+9wnw57664 0.7 10181033
12:00+11w794989 0.2 10181906
15:00+12w7938100 0.3 10172301
18:00+11wnw594841 0.0 10181893
21:00+5nw6117498 0.1 1021774
25 april, sun
sun2500:00+3w36780 0.0 1022153
03:00+2wnw35770 0.0 102295
06:00+2w34711 0.0 102385
09:00+7wnw34445 0.0 10231178
12:00+10wnw34355 0.0 10221881
15:00+11wnw333415 0.0 10202068
18:00+11w123695 0.0 10191906
21:00+8sse2247100 0.0 102015
26 april, mon
mon2600:00+7s3349100 0.0 101925
03:00+5ssw3360100 0.0 101839
06:00+4wsw237157 0.0 101865
09:00+10wsw455899 0.0 1018669
12:00+12w6659100 0.2 10171524
15:00+7nw357943 0.9 1018570
18:00+10wnw34578 0.1 1017829
21:00+6wsw33695 0.1 101839
27 april, tue
tue2700:00+5wnw236567 0.0 101931
03:00+4sw116051 0.0 101810
06:00+3ssw22665 0.0 101826
09:00+10s4556100 0.0 1017844
12:00+13ssw6942100 0.0 10152390
15:00+10wsw71172100 0.6 10141269
18:00+10wsw612809 0.8 1014849
21:00+7wnw49875 0.9 1016288